Location: Muck Cross
(36.7179°N, 78.3678°W)
Time: 15:54:59
(UTC+00:00)

Vanguard 3 - Visible Passes

Search period start: 31 March 2023 00:00
Search period end: 10 April 2023 00:00
Orbit: 508 x 3249 km, 33.4° (Epoch: 31 March)

Date Brightness Start Highest point End Pass type
(mag) Time Alt. Az. Time Alt. Az. Time Alt. Az.
31 Mar 10.5 05:28:28 35° ESE 05:28:28 35° ESE 05:39:26 10° E visible
31 Mar 9.7 07:32:49 63° SW 07:36:47 74° SSE 07:56:17 10° E visible
31 Mar 10.0 09:37:09 18° W 09:54:03 79° S 10:11:07 10° ESE visible
01 Apr 11.2 04:16:13 15° E 04:16:13 15° E 04:18:58 10° E visible
01 Apr 9.9 06:20:34 60° SE 06:20:34 60° SE 06:37:29 10° E visible
01 Apr 9.9 08:24:54 40° WSW 08:34:36 80° S 08:53:32 10° E visible
01 Apr 10.1 10:31:50 10° W 10:51:38 70° SSW 11:07:21 10° ESE visible
02 Apr 10.6 05:08:17 33° E 05:08:17 33° E 05:17:55 10° E visible
02 Apr 9.7 07:12:37 69° SW 07:15:15 76° SSE 07:35:10 10° E visible
02 Apr 10.0 09:16:57 21° W 09:32:30 78° S 09:50:25 10° ESE visible
03 Apr 11.2 03:56:00 13° E 03:56:00 13° E 03:57:26 10° E visible
03 Apr 9.9 06:00:20 57° ESE 06:00:20 57° ESE 06:16:02 10° E visible
03 Apr 9.9 08:04:40 45° WSW 08:13:01 80° S 08:32:32 10° E visible
03 Apr 10.1 10:10:35 10° W 10:30:03 68° SSW 10:46:41 10° ESE visible
04 Apr 10.6 04:48:04 29° E 04:48:04 29° E 04:56:16 10° E visible
04 Apr 9.6 06:52:24 75° SSW 06:53:43 77° S 07:13:49 10° E visible
04 Apr 10.0 08:56:45 24° W 09:10:51 76° SSW 09:29:31 10° ESE visible
05 Apr 10.0 05:40:08 53° ESE 05:40:08 53° ESE 05:54:26 10° E visible
05 Apr 9.8 07:44:29 50° WSW 07:51:25 80° S 08:11:21 10° E visible
05 Apr 10.1 09:49:26 10° W 10:08:22 65° SSW 10:25:50 10° SE visible
06 Apr 10.7 04:27:54 25° E 04:27:54 25° E 04:34:30 10° E visible
06 Apr 9.6 06:32:15 78° S 06:32:16 78° S 06:52:19 10° E visible
06 Apr 10.0 08:36:35 27° W 08:49:10 75° SSW 09:08:25 10° ESE visible
07 Apr 10.1 05:20:02 47° E 05:20:02 47° E 05:32:40 10° E visible
07 Apr 9.7 07:24:23 55° WSW 07:29:50 79° S 07:49:58 10° ESE visible
07 Apr 10.1 09:28:44 11° W 09:46:36 63° SSW 10:04:43 10° SE visible
08 Apr 10.8 04:07:53 21° E 04:07:53 21° E 04:12:38 10° E visible
08 Apr 9.5 06:12:14 75° SE 06:12:14 75° SE 06:30:40 10° E visible
08 Apr 9.9 08:16:35 31° W 08:27:27 73° SSW 08:47:05 10° ESE visible
09 Apr10.402:55:47ENE02:55:47ENE02:30:49SSWvisible
09 Apr 10.2 05:00:09 40° E 05:00:09 40° E 05:10:48 10° E visible
09 Apr 9.6 07:04:31 63° WSW 07:08:17 78° S 07:28:23 10° ESE visible
09 Apr 10.1 09:08:53 14° W 09:24:47 60° SSW 09:43:23 10° SE visible
